Location: Neuvy Saint Sepulchre
(46.5953°N, 1.8122°E)
Time: 04:14:24
(UTC+01:00)

Envisat - Visible Passes

Search period start: 21 February 2024 00:00
Search period end: 02 March 2024 00:00
Orbit: 762 x 764 km, 98.3° (Epoch: 20 February)

Date Brightness Start Highest point End Pass type
(mag) Time Alt. Az. Time Alt. Az. Time Alt. Az.
21 Feb 5.6 03:43:01 10° NNE 03:44:05 16° NE 03:44:05 16° NE visible
21 Feb 4.5 05:22:04 10° N 05:24:16 22° NNW 05:24:16 22° NNW visible
22 Feb 4.6 04:44:26 10° N 04:46:40 26° N 04:46:40 26° N visible
22 Feb 5.0 06:26:04 10° NW 06:26:50 11° NW 06:26:50 11° NW visible
23 Feb 5.0 04:07:10 10° NNE 04:09:04 23° NNE 04:09:04 23° NNE visible
23 Feb 4.6 05:46:58 10° NNW 05:49:15 19° NW 05:49:15 19° NW visible
24 Feb 5.7 03:30:23 10° NE 03:31:29 15° NE 03:31:29 15° NE visible
24 Feb 4.3 05:09:01 10° N 05:11:39 28° NNW 05:11:39 28° NNW visible
25 Feb 4.5 04:31:31 10° NNE 04:34:03 30° NNE 04:34:03 30° NNE visible
25 Feb 4.8 06:12:15 10° NNW 06:14:13 14° NW 06:14:13 14° NW visible
26 Feb 5.1 03:54:23 10° NNE 03:56:28 23° NE 03:56:28 23° NE visible
26 Feb 4.3 05:33:48 10° N 05:36:38 24° NW 05:36:38 24° NW visible
27 Feb 5.7 03:17:50 10° NE 03:18:52 14° NE 03:18:52 14° NE visible
27 Feb 4.1 04:56:01 10° N 04:59:02 34° NNW 04:59:02 34° NNW visible
28 Feb 4.4 04:18:38 10° NNE 04:21:26 33° NNE 04:21:26 33° NNE visible
28 Feb 4.6 05:58:49 10° NNW 06:01:36 17° NW 06:01:36 17° NW visible
29 Feb 5.2 03:41:39 10° NNE 03:43:51 22° NE 03:43:51 22° NE visible
29 Feb 4.0 05:20:41 10° N 05:24:01 30° NW 05:24:01 30° NW visible
01 Mar 5.8 03:05:27 10° NE 03:06:15 12° ENE 03:06:15 12° ENE visible
01 Mar 3.8 04:43:02 10° N 04:46:26 42° N 04:46:26 42° N visible
01 Mar 4.9 06:24:36 10° NW 06:26:09 11° NW 06:26:36 11° WNW visible
